Saranac Lake, NY

5:03 AM EST on December 11, 2017 (GMT -0500)
Adirondack Regional

Weather History for KSLK - January, 2013

Change the Weather History Date:

Sunday, January 6, 2013

  Actual Average Record
Temperature  
Mean Temperature 21 °F 14 °F  
Max Temperature 30 °F 25 °F 53 °F (2007)
Min Temperature 11 °F 3 °F -20 °F (1989)
Degree Days  
Heating Degree Days 44 51  
Month to date heating degree days 328 306  
Since 1 July heating degree days 3702 4005  
Cooling Degree Days 0 0  
Month to date cooling degree days 0  
Year to date cooling degree days 0  
Moisture  
Dew Point 24 °F    
Average Humidity 94    
Maximum Humidity 100    
Minimum Humidity 88    
Precipitation  
Precipitation 0.12 in 0.07 in 0.71 in (2007)
Month to date precipitation 0.18 0.45  
Year to date precipitation 0.18 0.45  
Sea Level Pressure  
Sea Level Pressure 29.87 in    
Wind  
Wind Speed 6 mph (SW)    
Max Wind Speed 13 mph    
Max Gust Speed 18 mph    
Visibility 3 miles    
Events Fog , Snow    
T = Trace of Precipitation, MM = Missing Value Source: NWS Daily Summary

Daily Weather History Graph

Daily Weather History Graph

Search for Another Location

Airport or City:

Trip Planner

Search our weather history database for the weather conditions in past years. The results will help you decide how hot, cold, wet, or windy it might be!

Date:

Astronomy

Jan. 06, 2013 Rise Set
Actual Time 7:32 AM EST 4:33 PM EST
Civil Twilight 6:59 AM EST 5:06 PM EST
Nautical Twilight 6:23 AM EST 5:42 PM EST
Astronomical Twilight 5:48 AM EST 6:17 PM EST
Moon 1:38 AM EST (1/6) 12:03 PM EST (1/6)
Length of Visible Light 10h 06m
Length of Day
9h 00m
Waning Crescent, 33% of the Moon is Illuminated
Jan 6
Waning Crescent
Jan 11
New
Jan 18
First Quarter
Jan 26
Full
Feb 3
Last Quarter

Hourly Weather History & Observations

Time (EST) Temp. Windchill Dew Point Humidity Pressure Visibility Wind Dir Wind Speed Gust Speed Precip Events Conditions
12:51 AM 12.9 °F - 10.0 °F 88% 30.10 in 10.0 mi Calm Calm - N/A   Overcast
1:51 AM 14.0 °F - 12.0 °F 92% 30.08 in 10.0 mi Calm Calm - N/A   Overcast
2:49 AM 15.8 °F - 12.2 °F 86% 29.95 in 10.0 mi Calm Calm - N/A   Overcast
2:51 AM 15.1 °F - 12.0 °F 88% 30.03 in 10.0 mi Calm Calm - N/A   Overcast
3:02 AM 15.8 °F 10.2 °F 12.2 °F 86% 29.94 in 1.8 mi SW 3.5 mph - 0.00 in Snow Light Snow
3:51 AM 17.1 °F - 15.1 °F 92% 30.00 in 1.2 mi Calm Calm - 0.01 in Snow Light Snow
5:04 AM 17.6 °F 12.3 °F 15.8 °F 93% 29.87 in 0.8 mi WSW 3.5 mph - 0.01 in Snow Light Snow
5:33 AM 21.2 °F 12.6 °F 19.4 °F 93% 29.87 in 1.0 mi SW 6.9 mph - 0.02 in Snow Light Snow
5:51 AM 21.9 °F 12.5 °F 19.9 °F 92% 29.96 in 1.2 mi SW 8.1 mph - 0.02 in Snow Light Snow
6:31 AM 21.2 °F 11.7 °F 19.4 °F 93% 29.87 in 2.0 mi SW 8.1 mph - 0.00 in Snow Light Snow
6:51 AM 21.9 °F 12.5 °F 19.9 °F 92% 29.96 in 5.0 mi SW 8.1 mph - 0.00 in Snow Light Snow
7:02 AM 21.2 °F 11.7 °F 19.4 °F 93% 29.86 in 2.0 mi SW 8.1 mph - 0.00 in Snow Light Snow
7:21 AM 21.2 °F 13.6 °F 19.4 °F 93% 29.86 in 2.5 mi SW 5.8 mph - 0.00 in Snow Light Snow
7:31 AM 21.2 °F 14.9 °F 19.4 °F 93% 29.86 in 4.0 mi SW 4.6 mph - 0.00 in Snow Light Snow
7:51 AM 23.0 °F 15.8 °F 21.0 °F 92% 29.96 in 2.0 mi SW 5.8 mph - 0.01 in Snow Light Snow
7:59 AM 23.0 °F 15.8 °F 21.2 °F 93% 29.86 in 1.5 mi SW 5.8 mph - 0.00 in Snow Light Snow
8:17 AM 23.0 °F 15.8 °F 21.2 °F 93% 29.86 in 2.0 mi SW 5.8 mph - 0.00 in Snow Light Snow
8:32 AM 23.0 °F 14.7 °F 21.2 °F 93% 29.86 in 4.0 mi SW 6.9 mph - 0.00 in Snow Light Snow
9:06 AM 23.0 °F 15.8 °F 21.2 °F 93% 29.86 in 1.2 mi SW 5.8 mph - 0.00 in Snow Light Snow
9:26 AM 23.0 °F 15.8 °F 21.2 °F 93% 29.85 in 1.0 mi SW 5.8 mph - 0.00 in Snow Light Snow
9:51 AM 24.1 °F 17.0 °F 21.9 °F 91% 29.94 in 2.0 mi SW 5.8 mph - 0.00 in Snow Light Snow
10:10 AM 24.8 °F 16.9 °F 23.0 °F 93% 29.85 in 3.0 mi SW 6.9 mph - 0.00 in   Overcast
10:39 AM 26.6 °F 16.8 °F 23.0 °F 86% 29.84 in 4.0 mi SW 10.4 mph - 0.00 in   Overcast
10:51 AM 26.1 °F 17.6 °F 23.0 °F 88% 29.92 in 3.0 mi SW 8.1 mph - 0.00 in   Overcast
11:07 AM 26.6 °F 19.1 °F 24.8 °F 93% 29.83 in 5.0 mi SW 6.9 mph - N/A   Overcast
11:20 AM 26.6 °F 19.1 °F 24.8 °F 93% 29.82 in 2.0 mi SW 6.9 mph - 0.01 in Snow Light Snow
11:37 AM 26.6 °F 18.2 °F 24.8 °F 93% 29.81 in 1.5 mi SW 8.1 mph - 0.01 in Snow Light Snow
11:51 AM 27.0 °F 19.5 °F 25.0 °F 92% 29.89 in 1.8 mi SW 6.9 mph - 0.01 in Snow Light Snow
11:59 AM 26.6 °F 17.5 °F 24.8 °F 93% 29.80 in 2.0 mi SW 9.2 mph - 0.00 in   Overcast
12:28 PM 28.4 °F 19.7 °F 26.6 °F 93% 29.79 in 1.5 mi SW 9.2 mph - 0.00 in   Overcast
12:51 PM 28.0 °F 18.1 °F 27.0 °F 96% 29.86 in 1.8 mi SSW 11.5 mph - 0.00 in   Overcast
1:06 PM 28.4 °F 18.0 °F 26.6 °F 93% 29.78 in 2.5 mi SSW 12.7 mph - N/A   Overcast
1:17 PM 28.4 °F 18.5 °F 26.6 °F 93% 29.78 in 1.2 mi SW 11.5 mph - 0.00 in Snow Light Snow
1:51 PM 28.9 °F 20.4 °F 27.0 °F 92% 29.85 in 1.0 mi SW 9.2 mph 18.4 mph 0.01 in Snow Light Snow
1:58 PM 28.4 °F 20.4 °F 26.6 °F 93% 29.78 in 0.5 mi SW 8.1 mph - 0.00 in Fog , Snow Snow
2:47 PM 28.4 °F 20.4 °F 28.4 °F 100% 29.78 in 1.8 mi SW 8.1 mph - 0.01 in Snow Light Snow
2:51 PM 28.9 °F 21.1 °F 28.0 °F 96% 29.86 in 2.0 mi SW 8.1 mph - 0.01 in Snow Light Snow
3:03 PM 30.2 °F 22.6 °F 26.6 °F 86% 29.78 in 1.2 mi SW 8.1 mph - 0.00 in Snow Light Snow
3:14 PM 28.4 °F 20.4 °F 26.6 °F 93% 29.78 in 0.8 mi SW 8.1 mph - 0.00 in Snow Light Snow
3:51 PM 28.9 °F 20.4 °F 27.0 °F 92% 29.86 in 0.5 mi SW 9.2 mph - 0.01 in Fog , Snow Light Snow
4:38 PM 28.4 °F 21.2 °F 26.6 °F 93% 29.79 in 1.5 mi SW 6.9 mph - 0.00 in Snow Light Snow
4:51 PM 28.9 °F 21.9 °F 28.0 °F 96% 29.86 in 1.5 mi SW 6.9 mph - 0.00 in Snow Light Snow
5:19 PM 28.4 °F 21.2 °F 28.4 °F 100% 29.80 in 3.0 mi SW 6.9 mph - 0.01 in Snow Light Snow
5:51 PM 30.0 °F 24.1 °F 28.0 °F 92% 29.87 in 4.0 mi SW 5.8 mph - 0.01 in Snow Light Snow
5:55 PM 30.2 °F 23.4 °F 28.4 °F 93% 29.80 in 2.5 mi SW 6.9 mph - 0.00 in Snow Light Snow
6:02 PM 30.2 °F 22.6 °F 28.4 °F 93% 29.80 in 2.0 mi SW 8.1 mph - 0.00 in Snow Light Snow
6:12 PM 30.2 °F 23.4 °F 28.4 °F 93% 29.81 in 1.2 mi SW 6.9 mph - 0.00 in Snow Light Snow
6:27 PM 30.2 °F 23.4 °F 28.4 °F 93% 29.81 in 2.0 mi SW 6.9 mph - 0.00 in Snow Light Snow
6:46 PM 28.4 °F 21.2 °F 28.4 °F 100% 29.81 in 2.5 mi SW 6.9 mph - 0.00 in Snow Light Snow
6:51 PM 28.9 °F 21.1 °F 28.0 °F 96% 29.88 in 2.5 mi SW 8.1 mph - 0.00 in Snow Light Snow
6:59 PM 28.4 °F 21.2 °F 28.4 °F 100% 29.81 in 1.5 mi SW 6.9 mph - 0.00 in Snow Light Snow
7:17 PM 28.4 °F 22.2 °F 28.4 °F 100% 29.81 in 1.8 mi SW 5.8 mph - 0.01 in Snow Light Snow
7:51 PM 30.0 °F 25.2 °F 28.0 °F 92% 29.88 in 1.8 mi WSW 4.6 mph - 0.01 in Snow Light Snow
8:07 PM 30.2 °F 26.7 °F 28.4 °F 93% 29.82 in 2.5 mi SW 3.5 mph - 0.00 in Snow Light Snow
8:16 PM 30.2 °F 25.4 °F 28.4 °F 93% 29.82 in 3.0 mi SW 4.6 mph - 0.00 in Snow Light Snow
8:51 PM 30.0 °F 23.2 °F 28.0 °F 92% 29.89 in 8.0 mi WSW 6.9 mph - 0.00 in   Overcast
9:51 PM 30.0 °F 25.2 °F 28.0 °F 92% 29.91 in 5.0 mi WSW 4.6 mph - 0.00 in   Overcast
10:51 PM 30.0 °F 25.2 °F 28.0 °F 92% 29.92 in 7.0 mi West 4.6 mph - 0.00 in Snow Light Snow
11:04 PM 30.2 °F 26.7 °F 28.4 °F 93% 29.87 in 2.0 mi Variable 3.5 mph - 0.00 in Snow Light Snow
11:15 PM 30.2 °F 26.7 °F 28.4 °F 93% 29.87 in 1.8 mi Variable 3.5 mph - 0.01 in Snow Light Snow
11:25 PM 30.2 °F - 28.4 °F 93% 29.87 in 2.0 mi Calm Calm - 0.01 in Snow Light Snow
11:44 PM 30.2 °F - 28.4 °F 93% 29.88 in 5.0 mi Calm Calm - 0.01 in Snow Light Snow
11:51 PM 30.0 °F 23.2 °F 28.0 °F 92% 29.94 in 3.0 mi Variable 6.9 mph - 0.01 in Snow Light Snow